| time (UTC) | temp C | wind direction | speed KPH | gust KPH | rain 1hr cm | rain 24hr cm | rain mn cm | humidity % | barometer mb |
| 20260906234615 | 23 | 210 | 22.5 | 33.8 | 0.00 | 0.00 | 0.00 | 31 | 1017.4 |
| 20260906233623 | 23 | 214 | 14.5 | 29.0 | 0.00 | 0.00 | 0.00 | 30 | 1017.3 |
| 20260906232617 | 23 | 254 | 17.7 | 30.6 | 0.00 | 0.00 | 0.00 | 29 | 1017.5 |
| 20260906231626 | 23 | 215 | 14.5 | 30.6 | 0.00 | 0.00 | 0.00 | 30 | 1017.5 |
| 20260906230615 | 23 | 212 | 20.9 | 33.8 | 0.00 | 0.00 | 0.00 | 28 | 1017.5 |
| 20260906225613 | 24 | 207 | 12.9 | 30.6 | 0.00 | 0.00 | 0.00 | 28 | 1017.5 |
| 20260906224626 | 23 | 221 | 19.3 | 30.6 | 0.00 | 0.00 | 0.00 | 28 | 1017.6 |
| 20260906223614 | 24 | 213 | 16.1 | 30.6 | 0.00 | 0.00 | 0.00 | 28 | 1017.7 |
| 20260906222623 | 24 | 221 | 12.9 | 35.4 | 0.00 | 0.00 | 0.00 | 26 | 1017.6 |
| 20260906221633 | 25 | 225 | 16.1 | 38.6 | 0.00 | 0.00 | 0.00 | 27 | 1017.6 |
| 20260906220645 | 25 | 212 | 22.5 | 37.0 | 0.00 | 0.00 | 0.00 | 25 | 1017.6 |
| 20260906215626 | 25 | 249 | 17.7 | 25.7 | 0.00 | 0.00 | 0.00 | 26 | 1017.5 |
| 20260906214615 | 25 | 222 | 16.1 | 41.8 | 0.00 | 0.00 | 0.00 | 25 | 1017.7 |
| 20260906213624 | 25 | 205 | 16.1 | 29.0 | 0.00 | 0.00 | 0.00 | 24 | 1017.6 |
| 20260906212617 | 25 | 254 | 17.7 | 35.4 | 0.00 | 0.00 | 0.00 | 24 | 1017.8 |
| 20260906211627 | 25 | 217 | 17.7 | 35.4 | 0.00 | 0.00 | 0.00 | 23 | 1017.8 |
| 20260906210616 | 25 | 209 | 14.5 | 38.6 | 0.00 | 0.00 | 0.00 | 24 | 1017.9 |
| 20260906205617 | 25 | 231 | 17.7 | 32.2 | 0.00 | 0.00 | 0.00 | 23 | 1018.1 |
| 20260906204631 | 25 | 257 | 19.3 | 37.0 | 0.00 | 0.00 | 0.00 | 23 | 1018.2 |
| 20260906203620 | 25 | 219 | 24.1 | 35.4 | 0.00 | 0.00 | 0.00 | 23 | 1018.2 |
| 20260906202628 | 25 | 215 | 20.9 | 40.2 | 0.00 | 0.00 | 0.00 | 23 | 1018.2 |
| 20260906201617 | 25 | 215 | 12.9 | 29.0 | 0.00 | 0.00 | 0.00 | 22 | 1018.2 |
| 20260906200631 | 25 | 205 | 20.9 | 32.2 | 0.00 | 0.00 | 0.00 | 22 | 1018.4 |
| 20260906195613 | 25 | 200 | 11.3 | 27.4 | 0.00 | 0.00 | 0.00 | 23 | 1018.6 |
| 20260906194625 | 25 | 176 | 19.3 | 33.8 | 0.00 | 0.00 | 0.00 | 22 | 1018.6 |
| 20260906193615 | 25 | 196 | 17.7 | 25.7 | 0.00 | 0.00 | 0.00 | 22 | 1018.5 |
| 20260906192649 | 25 | 222 | 16.1 | 33.8 | 0.00 | 0.00 | 0.00 | 23 | 1018.8 |
| 20260906191615 | 25 | 177 | 14.5 | 35.4 | 0.00 | 0.00 | 0.00 | 21 | 1018.9 |
| 20260906190623 | 25 | 157 | 22.5 | 35.4 | 0.00 | 0.00 | 0.00 | 22 | 1018.7 |
| 20260906185625 | 25 | 182 | 16.1 | 33.8 | 0.00 | 0.00 | 0.00 | 21 | 1019.0 |
| 20260906184619 | 25 | 175 | 20.9 | 29.0 | 0.00 | 0.00 | 0.00 | 22 | 1019.0 |
| 20260906183629 | 23 | 223 | 14.5 | 30.6 | 0.00 | 0.00 | 0.00 | 24 | 1019.4 |
| 20260906182618 | 23 | 234 | 14.5 | 41.8 | 0.00 | 0.00 | 0.00 | 24 | 1019.4 |
| 20260906181649 | 24 | 182 | 24.1 | 37.0 | 0.00 | 0.00 | 0.00 | 23 | 1019.6 |
| 20260906180624 | 23 | 158 | 25.7 | 37.0 | 0.00 | 0.00 | 0.00 | 24 | 1019.7 |
| 20260906175629 | 23 | 204 | 27.4 | 35.4 | 0.00 | 0.00 | 0.00 | 24 | 1019.9 |
| 20260906174618 | 23 | 175 | 17.7 | 30.6 | 0.00 | 0.00 | 0.00 | 25 | 1020.0 |
| 20260906173626 | 23 | 196 | 16.1 | 30.6 | 0.00 | 0.00 | 0.00 | 22 | 1020.3 |
| 20260906172615 | 23 | 190 | 17.7 | 33.8 | 0.00 | 0.00 | 0.00 | 24 | 1020.2 |
| 20260906171628 | 22 | 162 | 16.1 | 33.8 | 0.00 | 0.00 | 0.00 | 26 | 1020.4 |
| 20260906170618 | 22 | 152 | 22.5 | 33.8 | 0.00 | 0.00 | 0.00 | 30 | 1020.5 |
| 20260906165619 | 22 | 188 | 22.5 | 33.8 | 0.00 | 0.00 | 0.00 | 31 | 1020.6 |
| 20260906164629 | 21 | 162 | 22.5 | 32.2 | 0.00 | 0.00 | 0.00 | 32 | 1020.6 |
| 20260906163622 | 20 | 91 | 4.8 | 14.5 | 0.00 | 0.00 | 0.00 | 40 | 1020.8 |
| 20260906162612 | 18 | 101 | 6.4 | 19.3 | 0.00 | 0.00 | 0.00 | 42 | 1021.0 |
| 20260906161623 | 17 | 28 | 6.4 | 11.3 | 0.00 | 0.00 | 0.00 | 45 | 1021.2 |
| 20260906160616 | 16 | 50 | 4.8 | 8.0 | 0.00 | 0.00 | 0.00 | 47 | 1021.3 |
| 20260906155618 | 16 | 86 | 3.2 | 6.4 | 0.00 | 0.00 | 0.00 | 48 | 1021.3 |
| 20260906154649 | 14 | 85 | 3.2 | 6.4 | 0.00 | 0.00 | 0.00 | 50 | 1021.4 |
| 20260906153617 | 13 | 84 | 3.2 | 4.8 | 0.00 | 0.00 | 0.00 | 50 | 1021.5 |
| 20260906152627 | 12 | 84 | 1.6 | 4.8 | 0.00 | 0.00 | 0.00 | 52 | 1021.6 |
| 20260906151619 | 12 | 84 | 3.2 | 4.8 | 0.00 | 0.00 | 0.00 | 54 | 1021.6 |
| 20260906150649 | 11 | 84 | 3.2 | 4.8 | 0.00 | 0.00 | 0.00 | 56 | 1021.7 |
| 20260906145629 | 10 | 84 | 3.2 | 6.4 | 0.00 | 0.00 | 0.00 | 58 | 1021.8 |
| 20260906144619 | 9 | 84 | 4.8 | 6.4 | 0.00 | 0.00 | 0.00 | 61 | 1021.8 |
| 20260906143612 | 8 | 84 | 4.8 | 6.4 | 0.00 | 0.00 | 0.00 | 64 | 1021.9 |
| 20260906142620 | 7 | 84 | 4.8 | 6.4 | 0.00 | 0.00 | 0.00 | 67 | 1021.9 |
| 20260906141630 | 7 | 84 | 3.2 | 9.7 | 0.00 | 0.00 | 0.00 | 69 | 1021.9 |
| 20260906140621 | 6 | 84 | 4.8 | 6.4 | 0.00 | 0.00 | 0.00 | 72 | 1021.8 |
| 20260906135628 | 5 | 88 | 3.2 | 4.8 | 0.00 | 0.00 | 0.00 | 75 | 1021.8 |
| 20260906134620 | 3 | 87 | 0.0 | 3.2 | 0.00 | 0.00 | 0.00 | 77 | 1021.6 |
| 20260906133631 | 2 | 88 | 3.2 | 6.4 | 0.00 | 0.00 | 0.00 | 77 | 1021.5 |
| 20260906132627 | 2 | 86 | 0.0 | 1.6 | 0.00 | 0.00 | 0.00 | 79 | 1021.4 |
| 20260906131618 | 2 | 86 | 1.6 | 3.2 | 0.00 | 0.00 | 0.00 | 76 | 1021.3 |
| 20260906130629 | 2 | 86 | 3.2 | 6.4 | 0.00 | 0.00 | 0.00 | 74 | 1021.4 |
| 20260906125613 | 3 | 261 | 3.2 | 6.4 | 0.00 | 0.00 | 0.00 | 74 | 1021.2 |
| 20260906124628 | 3 | 261 | 3.2 | 9.7 | 0.00 | 0.00 | 0.00 | 72 | 1021.2 |
| 20260906123619 | 4 | 224 | 4.8 | 6.4 | 0.00 | 0.00 | 0.00 | 68 | 1021.2 |
| 20260906122630 | 5 | 224 | 1.6 | 6.4 | 0.00 | 0.00 | 0.00 | 66 | 1021.2 |
| 20260906121622 | 3 | 224 | 4.8 | 8.0 | 0.00 | 0.00 | 0.00 | 71 | 1021.2 |
| 20260906120638 | 3 | 239 | 3.2 | 6.4 | 0.00 | 0.00 | 0.00 | 72 | 1021.2 |
| 20260906115621 | 3 | 239 | 4.8 | 6.4 | 0.00 | 0.00 | 0.00 | 74 | 1021.3 |
| 20260906114650 | 2 | 239 | 4.8 | 6.4 | 0.00 | 0.00 | 0.00 | 75 | 1021.3 |
| 20260906113638 | 3 | 239 | 4.8 | 6.4 | 0.00 | 0.00 | 0.00 | 73 | 1021.3 |
| 20260906112647 | 3 | 239 | 3.2 | 6.4 | 0.00 | 0.00 | 0.00 | 70 | 1021.3 |
| 20260906111619 | 4 | 239 | 3.2 | 6.4 | 0.00 | 0.00 | 0.00 | 69 | 1021.3 |
| 20260906110630 | 4 | 239 | 3.2 | 6.4 | 0.00 | 0.00 | 0.00 | 71 | 1021.3 |
| 20260906105614 | 4 | 239 | 3.2 | 4.8 | 0.00 | 0.00 | 0.00 | 71 | 1021.4 |
| 20260906104645 | 4 | 239 | 1.6 | 4.8 | 0.00 | 0.00 | 0.00 | 72 | 1021.3 |
| 20260906103619 | 4 | 239 | 3.2 | 6.4 | 0.00 | 0.00 | 0.00 | 70 | 1021.3 |
| 20260906102631 | 5 | 239 | 3.2 | 6.4 | 0.00 | 0.00 | 0.00 | 67 | 1021.2 |
| 20260906101622 | 5 | 239 | 3.2 | 4.8 | 0.00 | 0.00 | 0.00 | 65 | 1021.1 |
| 20260906100618 | 6 | 239 | 3.2 | 4.8 | 0.00 | 0.00 | 0.00 | 59 | 1021.1 |
| 20260906095621 | 6 | 239 | 3.2 | 4.8 | 0.00 | 0.00 | 0.00 | 59 | 1021.1 |
| 20260906094612 | 6 | 239 | 3.2 | 8.0 | 0.00 | 0.00 | 0.00 | 63 | 1020.9 |
| 20260906093623 | 5 | 225 | 4.8 | 8.0 | 0.00 | 0.00 | 0.00 | 65 | 1020.8 |
| 20260906092617 | 5 | 222 | 4.8 | 8.0 | 0.00 | 0.00 | 0.00 | 67 | 1020.8 |
| 20260906091629 | 5 | 207 | 4.8 | 6.4 | 0.00 | 0.00 | 0.00 | 65 | 1020.7 |
| 20260906090620 | 6 | 207 | 4.8 | 6.4 | 0.00 | 0.00 | 0.00 | 64 | 1020.7 |
| 20260906085623 | 6 | 85 | 3.2 | 4.8 | 0.00 | 0.00 | 0.00 | 64 | 1020.7 |
| 20260906084619 | 6 | 85 | 0.0 | 0.0 | 0.00 | 0.00 | 0.00 | 64 | 1020.8 |
| 20260906083630 | 6 | 85 | 0.0 | 4.8 | 0.00 | 0.00 | 0.00 | 65 | 1020.8 |
| 20260906082622 | 6 | 85 | 0.0 | 6.4 | 0.00 | 0.00 | 0.00 | 64 | 1020.8 |
| 20260906081613 | 6 | 85 | 1.6 | 3.2 | 0.00 | 0.00 | 0.00 | 63 | 1020.7 |
| 20260906080629 | 6 | 85 | 3.2 | 4.8 | 0.00 | 0.00 | 0.00 | 63 | 1020.9 |
| 20260906075612 | 7 | 85 | 6.4 | 9.7 | 0.00 | 0.00 | 0.00 | 63 | 1020.8 |
| 20260906074621 | 7 | 217 | 3.2 | 4.8 | 0.00 | 0.00 | 0.00 | 62 | 1020.7 |
| 20260906073615 | 7 | 217 | 0.0 | 4.8 | 0.00 | 0.00 | 0.00 | 59 | 1020.7 |
| 20260906072624 | 7 | 217 | 1.6 | 6.4 | 0.00 | 0.00 | 0.00 | 59 | 1020.9 |
| 20260906071634 | 7 | 217 | 4.8 | 6.4 | 0.00 | 0.00 | 0.00 | 61 | 1020.9 |
| 20260906070622 | 7 | 217 | 1.6 | 4.8 | 0.00 | 0.00 | 0.00 | 60 | 1020.8 |
| 20260906065646 | 8 | 217 | 3.2 | 8.0 | 0.00 | 0.00 | 0.00 | 55 | 1020.7 |
| 20260906064640 | 9 | 217 | 4.8 | 6.4 | 0.00 | 0.00 | 0.00 | 52 | 1020.6 |
| 20260906063630 | 10 | 217 | 3.2 | 6.4 | 0.00 | 0.00 | 0.00 | 50 | 1020.7 |
| 20260906062622 | 10 | 217 | 3.2 | 8.0 | 0.00 | 0.00 | 0.00 | 47 | 1020.7 |
| 20260906061612 | 10 | 231 | 4.8 | 8.0 | 0.00 | 0.00 | 0.00 | 48 | 1020.7 |
| 20260906060618 | 10 | 254 | 4.8 | 11.3 | 0.00 | 0.00 | 0.00 | 50 | 1020.6 |
| 20260906055641 | 9 | 254 | 4.8 | 8.0 | 0.00 | 0.00 | 0.00 | 52 | 1020.5 |
| 20260906054637 | 9 | 254 | 6.4 | 8.0 | 0.00 | 0.00 | 0.00 | 52 | 1020.5 |
| 20260906053627 | 10 | 216 | 3.2 | 6.4 | 0.00 | 0.00 | 0.00 | 49 | 1020.6 |
| 20260906052619 | 11 | 215 | 3.2 | 6.4 | 0.00 | 0.00 | 0.00 | 44 | 1020.6 |
| 20260906051629 | 11 | 226 | 4.8 | 11.3 | 0.00 | 0.00 | 0.00 | 45 | 1020.7 |
| 20260906050624 | 10 | 256 | 6.4 | 9.7 | 0.00 | 0.00 | 0.00 | 48 | 1020.6 |
| 20260906045628 | 12 | 221 | 8.0 | 9.7 | 0.00 | 0.00 | 0.00 | 41 | 1020.7 |
| 20260906044619 | 13 | 226 | 4.8 | 8.0 | 0.00 | 0.00 | 0.00 | 37 | 1020.8 |
| 20260906043630 | 12 | 195 | 6.4 | 12.9 | 0.00 | 0.00 | 0.00 | 38 | 1020.8 |
| 20260906042625 | 11 | 233 | 9.7 | 14.5 | 0.00 | 0.00 | 0.00 | 41 | 1020.6 |
| 20260906041617 | 10 | 267 | 6.4 | 11.3 | 0.00 | 0.00 | 0.00 | 49 | 1020.6 |
| 20260906040628 | 11 | 251 | 8.0 | 11.3 | 0.00 | 0.00 | 0.00 | 48 | 1020.3 |
| 20260906035631 | 12 | 257 | 6.4 | 11.3 | 0.00 | 0.00 | 0.00 | 44 | 1020.3 |
| 20260906034627 | 13 | 248 | 6.4 | 11.3 | 0.00 | 0.00 | 0.00 | 41 | 1020.2 |
| 20260906033638 | 12 | 248 | 4.8 | 6.4 | 0.00 | 0.00 | 0.00 | 44 | 1020.2 |
| 20260906032628 | 12 | 248 | 4.8 | 8.0 | 0.00 | 0.00 | 0.00 | 44 | 1020.1 |
| 20260906031639 | 13 | 265 | 4.8 | 9.7 | 0.00 | 0.00 | 0.00 | 39 | 1019.9 |
| 20260906030613 | 13 | 265 | 4.8 | 6.4 | 0.00 | 0.00 | 0.00 | 40 | 1019.8 |
| 20260906025616 | 15 | 265 | 4.8 | 6.4 | 0.00 | 0.00 | 0.00 | 40 | 1019.7 |
| 20260906024647 | 15 | 265 | 1.6 | 4.8 | 0.00 | 0.00 | 0.00 | 34 | 1019.6 |
| 20260906023618 | 16 | 265 | 3.2 | 4.8 | 0.00 | 0.00 | 0.00 | 36 | 1019.4 |
| 20260906022614 | 16 | 265 | 3.2 | 4.8 | 0.00 | 0.00 | 0.00 | 33 | 1019.3 |
| 20260906021625 | 17 | 265 | 3.2 | 9.7 | 0.00 | 0.00 | 0.00 | 32 | 1019.2 |
| 20260906020617 | 19 | 226 | 3.2 | 8.0 | 0.00 | 0.00 | 0.00 | 28 | 1019.1 |
| 20260906015620 | 21 | 211 | 8.0 | 9.7 | 0.00 | 0.00 | 0.00 | 22 | 1019.0 |
| 20260906014635 | 22 | 236 | 6.4 | 11.3 | 0.00 | 0.00 | 0.00 | 21 | 1019.1 |
| 20260906013626 | 23 | 238 | 6.4 | 12.9 | 0.00 | 0.00 | 0.00 | 20 | 1019.1 |
| 20260906012616 | 24 | 220 | 11.3 | 17.7 | 0.00 | 0.00 | 0.00 | 17 | 1019.3 |
| 20260906011645 | 24 | 237 | 11.3 | 24.1 | 0.00 | 0.00 | 0.00 | 17 | 1019.3 |
| 20260906010618 | 25 | 223 | 11.3 | 24.1 | 0.00 | 0.00 | 0.00 | 17 | 1019.2 |
| 20260906005619 | 25 | 230 | 16.1 | 29.0 | 0.00 | 0.00 | 0.00 | 16 | 1019.2 |
| 20260906004627 | 25 | 247 | 19.3 | 27.4 | 0.00 | 0.00 | 0.00 | 15 | 1019.2 |
| 20260906003617 | 25 | 204 | 16.1 | 25.7 | 0.00 | 0.00 | 0.00 | 16 | 1019.2 |
| 20260906002630 | 25 | 219 | 17.7 | 27.4 | 0.00 | 0.00 | 0.00 | 15 | 1019.2 |
| 20260906001620 | 25 | 221 | 14.5 | 25.7 | 0.00 | 0.00 | 0.00 | 15 | 1019.2 |
| 20260906000629 | 25 | 195 | 19.3 | 38.6 | 0.00 | 0.00 | 0.00 | 15 | 1019.1 |
| 20260905235630 | 26 | 237 | 17.7 | 32.2 | 0.00 | 0.00 | 0.00 | 15 | 1019.0 |